Weather History for PAPG - May, 2013

Change the Weather History Date:

Thursday, May 2, 2013

  Actual Average Record
Temperature  
Mean Temperature 44 °F -  
Max Temperature 48 °F 48 °F 66 °F (1989)
Min Temperature 41 °F 34 °F 30 °F (1997)
Degree Days  
Heating Degree Days 20    
Moisture  
Dew Point 41 °F    
Average Humidity 89    
Maximum Humidity 93    
Minimum Humidity 81    
Precipitation  
Precipitation 0.10 in - - ()
Sea Level Pressure  
Sea Level Pressure 30.33 in    
Wind  
Wind Speed 2 mph (WSW)    
Max Wind Speed 8 mph    
Max Gust Speed -    
Visibility 8 miles    
Events      
Averages and records for this station are not official NWS values.
T = Trace of Precipitation, MM = Missing Value Source: NWS Daily Summary

Daily Weather History Graph

Daily Weather History Graph

Search for Another Location

Airport or City:

Trip Planner

Search our weather history database for the weather conditions in past years. The results will help you decide how hot, cold, wet, or windy it might be!

Date:

Astronomy

May. 02, 2013 Rise Set
Actual Time 5:01 AM AKDT 8:37 PM AKDT
Civil Twilight 4:14 AM AKDT 9:24 PM AKDT
Nautical Twilight 3:09 AM AKDT 10:31 PM AKDT
Astronomical Twilight 1:21 AM AKDT 12:16 AM AKDT
Moon 2:18 AM AKDT (5/2) 12:13 PM AKDT (5/2)
Length of Visible Light 17h 09m
Length of Day
15h 36m
Last Quarter, 46% of the Moon is Illuminated
May 2
Last Quarter
May 9
New
May 17
First Quarter
May 24
Full
May 31
Last Quarter

Hourly Weather History & Observations

Time (AKDT) Temp. Windchill Dew Point Humidity Pressure Visibility Wind Dir Wind Speed Gust Speed Precip Events Conditions
12:16 AM 41.0 °F - 37.4 °F 87% 30.16 in 10.0 mi Calm Calm - N/A   Overcast
12:36 AM 41.0 °F - 37.4 °F 87% 30.17 in 10.0 mi Calm Calm - N/A   Overcast
12:56 AM 41.0 °F - 37.4 °F 87% 30.17 in 10.0 mi Calm Calm - N/A   Overcast
1:16 AM 41.0 °F - 37.4 °F 87% 30.18 in 10.0 mi Calm Calm - N/A   Overcast
1:36 AM 41.0 °F 38.0 °F 37.4 °F 87% 30.19 in 10.0 mi SW 4.6 mph - N/A   Overcast
1:56 AM 42.8 °F 41.1 °F 39.2 °F 87% 30.19 in 8.0 mi NW 3.5 mph - 0.06 in   Overcast
2:16 AM 41.0 °F 39.0 °F 39.2 °F 93% 30.19 in 10.0 mi SW 3.5 mph - N/A   Overcast
2:36 AM 41.0 °F - 37.4 °F 87% 30.19 in 10.0 mi Calm Calm - N/A   Overcast
2:56 AM 41.0 °F - 37.4 °F 87% 30.19 in 10.0 mi Calm Calm - N/A   Overcast
3:16 AM 41.0 °F - 37.4 °F 87% 30.19 in 10.0 mi Calm Calm - N/A   Overcast
3:36 AM 41.0 °F 39.0 °F 39.2 °F 93% 30.20 in 10.0 mi WSW 3.5 mph - N/A   Overcast
3:56 AM 41.0 °F - 37.4 °F 87% 30.21 in 10.0 mi Calm Calm - N/A   Overcast
4:16 AM 41.0 °F - 37.4 °F 87% 30.21 in 10.0 mi Calm Calm - 0.01 in   Overcast
4:36 AM 41.0 °F 38.0 °F 37.4 °F 87% 30.21 in 10.0 mi WSW 4.6 mph - 0.01 in   Overcast
4:56 AM 41.0 °F 39.0 °F 37.4 °F 87% 30.21 in 10.0 mi SW 3.5 mph - 0.01 in   Overcast
5:16 AM 41.0 °F 39.0 °F 39.2 °F 93% 30.21 in 10.0 mi WSW 3.5 mph - 0.01 in   Overcast
5:36 AM 41.0 °F 39.0 °F 39.2 °F 93% 30.22 in 10.0 mi SW 3.5 mph - 0.01 in   Overcast
5:56 AM 41.0 °F 39.0 °F 39.2 °F 93% 30.22 in 10.0 mi West 3.5 mph - 0.01 in   Overcast
6:16 AM 41.0 °F 39.0 °F 39.2 °F 93% 30.22 in 10.0 mi SW 3.5 mph - 0.01 in   Overcast
6:36 AM 42.8 °F 41.1 °F 39.2 °F 87% 30.23 in 10.0 mi West 3.5 mph - 0.01 in   Overcast
6:56 AM 42.8 °F - 39.2 °F 87% 30.23 in 10.0 mi Calm Calm - 0.01 in   Overcast
7:16 AM 42.8 °F - 39.2 °F 87% 30.24 in 10.0 mi Calm Calm - N/A   Overcast
7:36 AM 42.8 °F - 39.2 °F 87% 30.25 in 10.0 mi Calm Calm - N/A   Overcast
7:56 AM 42.8 °F - 39.2 °F 87% 30.25 in 10.0 mi Calm Calm - N/A   Overcast
8:16 AM 42.8 °F - 39.2 °F 87% 30.26 in 10.0 mi Calm Calm - N/A   Overcast
8:36 AM 42.8 °F - 41.0 °F 93% 30.26 in 10.0 mi Calm Calm - N/A   Overcast
8:56 AM 42.8 °F - 39.2 °F 87% 30.27 in 3.0 mi Calm Calm - N/A   Overcast
9:16 AM 42.8 °F - 39.2 °F 87% 30.27 in 3.0 mi Calm Calm - N/A   Overcast
9:36 AM 44.6 °F - 41.0 °F 87% 30.27 in 3.0 mi Calm Calm - N/A   Overcast
9:56 AM 44.6 °F 43.1 °F 41.0 °F 87% 30.28 in 3.0 mi NNW 3.5 mph - N/A   Overcast
10:16 AM 44.6 °F 43.1 °F 41.0 °F 87% 30.29 in 3.0 mi NNW 3.5 mph - N/A   Overcast
10:36 AM 44.6 °F 43.1 °F 41.0 °F 87% 30.30 in 3.0 mi NNW 3.5 mph - N/A   Overcast
10:56 AM 44.6 °F 40.2 °F 42.8 °F 93% 30.30 in 4.0 mi ENE 8.1 mph - N/A   Overcast
11:16 AM 44.6 °F 41.4 °F 42.8 °F 93% 30.31 in 4.0 mi NE 5.8 mph - N/A   Overcast
11:36 AM 46.4 °F 45.2 °F 42.8 °F 87% 30.31 in 4.0 mi NNE 3.5 mph - N/A   Overcast
11:56 AM 46.4 °F - 44.6 °F 93% 30.32 in 5.0 mi Calm Calm - N/A   Overcast
12:16 PM 46.4 °F - 42.8 °F 87% 30.33 in 5.0 mi Calm Calm - N/A   Overcast
12:36 PM 46.4 °F 45.2 °F 42.8 °F 87% 30.34 in 5.0 mi NNW 3.5 mph - N/A   Overcast
12:56 PM 46.4 °F 44.3 °F 44.6 °F 93% 30.35 in 5.0 mi ENE 4.6 mph - N/A   Overcast
1:56 PM 46.4 °F 45.2 °F 44.6 °F 93% 30.37 in 7.0 mi North 3.5 mph - N/A   Overcast
2:16 PM 46.4 °F - 44.6 °F 93% 30.38 in 7.0 mi Calm Calm - N/A   Overcast
2:36 PM 46.4 °F 45.2 °F 44.6 °F 93% 30.39 in 7.0 mi SSE 3.5 mph - N/A   Overcast
2:56 PM 46.4 °F - 44.6 °F 93% 30.40 in 7.0 mi Calm Calm - N/A   Overcast
3:16 PM 48.2 °F - 42.8 °F 82% 30.41 in 7.0 mi Calm Calm - N/A   Overcast
3:36 PM 48.2 °F - 44.6 °F 87% 30.41 in 7.0 mi NE 4.6 mph - N/A   Overcast
3:56 PM 46.4 °F 44.3 °F 44.6 °F 93% 30.41 in 7.0 mi North 4.6 mph - N/A   Overcast
4:16 PM 46.4 °F 45.2 °F 44.6 °F 93% 30.41 in 7.0 mi WSW 3.5 mph - N/A   Overcast
4:36 PM 46.4 °F 42.4 °F 42.8 °F 87% 30.41 in 7.0 mi SW 8.1 mph - N/A   Overcast
4:56 PM 46.4 °F 43.5 °F 42.8 °F 87% 30.42 in 7.0 mi South 5.8 mph - N/A   Overcast
5:16 PM 46.4 °F 44.3 °F 42.8 °F 87% 30.42 in 7.0 mi SSW 4.6 mph - N/A   Overcast
5:36 PM 48.2 °F - 42.8 °F 82% 30.43 in 7.0 mi SSW 6.9 mph - N/A   Overcast
5:56 PM 46.4 °F 45.2 °F 42.8 °F 87% 30.43 in 10.0 mi SE 3.5 mph - N/A   Overcast
6:16 PM 46.4 °F 44.3 °F 42.8 °F 87% 30.42 in 10.0 mi NNE 4.6 mph - N/A   Overcast
6:36 PM 46.4 °F - 42.8 °F 87% 30.43 in 10.0 mi Calm Calm - N/A   Overcast
6:56 PM 46.4 °F 43.5 °F 42.8 °F 87% 30.44 in 10.0 mi SSW 5.8 mph - N/A   Overcast
7:16 PM 46.4 °F 44.3 °F 42.8 °F 87% 30.44 in 10.0 mi SSW 4.6 mph - N/A   Overcast
7:36 PM 46.4 °F 42.9 °F 42.8 °F 87% 30.46 in 10.0 mi SW 6.9 mph - N/A   Overcast
7:56 PM 46.4 °F 45.2 °F 42.8 °F 87% 30.46 in 5.0 mi South 3.5 mph - N/A   Overcast
8:16 PM 46.4 °F 44.3 °F 42.8 °F 87% 30.46 in 5.0 mi West 4.6 mph - N/A   Overcast
8:36 PM 46.4 °F 45.2 °F 42.8 °F 87% 30.47 in 5.0 mi South 3.5 mph - N/A   Overcast
8:56 PM 46.4 °F - 42.8 °F 87% 30.49 in 5.0 mi Calm Calm - N/A   Overcast
9:16 PM 46.4 °F - 41.0 °F 81% 30.48 in 5.0 mi Calm Calm - 0.01 in   Overcast
9:36 PM 44.6 °F 43.1 °F 42.8 °F 93% 30.49 in 5.0 mi SSW 3.5 mph - 0.01 in   Overcast
9:56 PM 44.6 °F 43.1 °F 42.8 °F 93% 30.49 in 7.0 mi SW 3.5 mph - 0.01 in   Overcast
10:16 PM 44.6 °F 41.4 °F 42.8 °F 93% 30.50 in 10.0 mi NNE 5.8 mph - N/A   Mostly Cloudy
10:36 PM 44.6 °F - 42.8 °F 93% 30.51 in 10.0 mi Calm Calm - N/A   Mostly Cloudy
10:56 PM 44.6 °F - 42.8 °F 93% 30.51 in 10.0 mi Calm Calm - N/A   Overcast
11:16 PM 44.6 °F - 41.0 °F 87% 30.51 in 10.0 mi Calm Calm - N/A   Mostly Cloudy
11:36 PM 44.6 °F - 41.0 °F 87% 30.51 in 10.0 mi Calm Calm - N/A   Overcast